Flag for Netherlands

Past Weather in Ede, Netherlands — Yesterday and Last 2 Weeks

Now
54 °F

Cool.


Feels Like: 53 °F
Forecast: 74 / 46 °F
Wind: 5 mph from Northeast

Location: Deelen
Current Time: Sep 21, 2020 at 2:55:45 am
Latest Report: Sep 21, 2020 at 1:55 am
Visibility: N/A
Pressure30.07 "Hg
Humidity: 82%
Dew Point: 48 °F
Location of EdeLocation

Past Weather in Ede — Graph

°F

Ede Temperature Yesterday

Maximum temperature yesterday: 75 °F (at 4:55 pm)
Minimum temperature yesterday: 45 °F (at 7:55 am)
Average temperature yesterday: 60 °F

High & Low Weather Summary for the Past Weeks

 TemperatureHumidityPressure
High90 °F (Sep 15, 2:25 pm)100% (Sep 6, 1:25 am)30.42 "Hg (Sep 6, 1:25 am)
Low43 °F (Sep 10, 5:25 am)29% (Sep 15, 2:25 pm)29.98 "Hg (Sep 12, 6:55 am)
Average60 °F77%30.16 "Hg
* Reported Sep 6 1:25 am — Sep 21 1:25 am, Ede. Weather by CustomWeather, © 2020

Note: Actual official high and low records may vary slightly from our data, if they occured in-between our weather recording intervals... More about our weather records

Ede Weather History for the Previous 24 Hours

Scroll right to see more
 ConditionsComfort  
Time TempWeatherWind HumidityBarometerVisibility
1:25 am
Mon, Sep 21
54 °FCool.5 mph82%30.07 "HgN/A
12:55 am54 °FCool.6 mph82%30.07 "HgN/A
12:25 am55 °FCool.7 mph77%30.07 "HgN/A
11:55 pm
Sun, Sep 20
55 °FCool.7 mph77%30.07 "HgN/A
11:25 pm55 °FCool.8 mph77%30.07 "HgN/A
10:55 pm57 °FCool.8 mph72%30.07 "HgN/A
10:25 pm57 °FCool.9 mph72%30.07 "HgN/A
9:55 pm59 °FCool.9 mph68%30.07 "HgN/A
9:25 pm59 °FCool.8 mph68%30.07 "HgN/A
8:55 pm59 °FCool.9 mph68%30.07 "HgN/A
8:25 pm59 °FCool.7 mph63%30.07 "HgN/A
7:55 pm63 °FMild.7 mph56%30.04 "HgN/A
7:25 pm66 °FMild.8 mph49%30.04 "HgN/A
6:55 pm70 °FMild.9 mph43%30.04 "HgN/A
6:25 pm72 °FMild.9 mph36%30.04 "HgN/A
5:55 pm73 °FMild.12 mph31%30.04 "HgN/A
5:25 pm73 °FMild.10 mph29%30.04 "HgN/A
4:55 pm75 °FMild.8 mph31%30.04 "HgN/A
4:25 pm73 °FMild.8 mph33%30.04 "HgN/A
3:25 pm73 °FMild.10 mph33%30.04 "HgN/A
2:55 pm73 °FMild.9 mph36%30.04 "HgN/A
2:25 pm72 °FMild.9 mph38%30.04 "HgN/A
1:55 pm72 °FMild.10 mph41%30.07 "HgN/A
1:25 pm70 °FMild.9 mph43%30.07 "HgN/A
12:55 pm70 °FMild.12 mph40%30.07 "HgN/A
12:25 pm68 °FMild.8 mph46%30.07 "HgN/A
11:55 am64 °FMild.9 mph52%30.07 "HgN/A
11:25 am64 °FMild.10 mph49%30.07 "HgN/A
10:55 am63 °FMild.8 mph52%30.07 "HgN/A
10:25 am57 °FCool.7 mph63%30.07 "HgN/A
9:55 am54 °FCool.8 mph67%30.07 "HgN/A
9:25 am52 °FCool.6 mph72%30.07 "HgN/A
8:55 am50 °FCool.5 mph76%30.07 "HgN/A
7:55 am45 °FQuite cool.7 mph87%30.07 "HgN/A
7:25 am46 °FCool.3 mph82%30.07 "HgN/A
6:55 am46 °FCool.7 mph82%30.04 "HgN/A
6:25 am48 °FCool.7 mph76%30.04 "HgN/A
5:55 am48 °FCool.3 mph76%30.04 "HgN/A
5:25 am50 °FCool.3 mph71%30.04 "HgN/A
4:55 am50 °FCool.3 mph71%30.04 "HgN/A
4:25 am50 °FCool.3 mph76%30.04 "HgN/A
3:55 am50 °FCool.5 mph71%30.04 "HgN/A
3:25 am52 °FCool.5 mph72%30.04 "HgN/A
2:55 am52 °FCool.7 mph72%30.04 "HgN/A
2:25 am52 °FCool.5 mph72%30.04 "HgN/A
Weather by CustomWeather, © 2020

See weather overview